Regional Weather Roundup
Issued by NWS

Home | Current Version | Previous Version | Graphics & Text | Print | Product List | Glossary On
Versions: 1 2 3 4 5 6 7 8 9 10 11 12 13 14 15 16 17 18 19 20 21 22 23 24 25 26 27 28 29 30 31 32 33 34 35 36 37 38 39 40 41 42 43 44 45 46 47 48 49 50
205
ASUS45 KBOU 231710
RWRCO

WEATHER ROUNDUP FOR COLORADO
NATIONAL WEATHER SERVICE DENVER/BOULDER CO
1000 AM MST THU NOV 23 2017

NOTE: "FAIR" INDICATES FEW OR NO CLOUDS BELOW 12000 FEET WITH NO
SIGNIFICANT WEATHER AND/OR OBSTRUCTIONS TO VISIBILITY.

COZ001>005-013-030-031-231800-
...NORTHWEST COLORADO...

CITY           SKY/WX    TMP DP  RH WIND       PRES   REMARKS
CRAIG          FAIR      39  34  82 CALM      30.37F
HAYDEN         FAIR      42  35  76 E9        30.38F
MEEKER         FAIR      45  35  68 CALM      30.38F
RABBIT EARS PA FAIR      32  32 100 W5        30.47F WCI  27
STEAMBOAT SPGS FAIR      36  36  99 CALM      30.38S
WALDEN         FAIR      46  32  57 S15G22    30.37F
$$

COZ006>008-011-231800-
...WEST CENTRAL VALLEYS...

CITY           SKY/WX    TMP DP  RH WIND       PRES   REMARKS
GRAND JUNCTION FAIR      47  35  63 SE9       30.36F
MONTROSE       FAIR      45  33  63 S3        30.42F
EAGLE          FOG       32  31  96 CALM      30.46F VSB 1/4
RIFLE          FAIR      39  34  82 CALM      30.41F
DELTA          FAIR      44  32  63 CALM      30.41F
NUCLA          FAIR      43  30  61 CALM      30.44S
$$

COZ017>023-064>068-231800-
...SOUTHWEST COLORADO...

CITY           SKY/WX    TMP DP  RH WIND       PRES   REMARKS
DURANGO        FAIR      42  28  57 NE5       30.40S
CORTEZ         FAIR      47  29  49 E3        30.39S
PAGOSA SPRINGS FAIR      49  27  42 CALM      30.42S
TELLURIDE      FAIR      47  23  38 CALM      30.50F
WOLF CREEK PAS FAIR      41   0  17 NW7       30.64S
$$

COZ009-010-012-014-032>034-037-058>063-231800-
...CENTRAL COLORADO...

CITY           SKY/WX    TMP DP  RH WIND       PRES   REMARKS
ASPEN          FAIR      45  28  51 CALM      30.42F
BUENA VISTA    FAIR      48  29  48 W7        30.40F
COPPER MTN     NOT AVBL
BERTHOUD PASS  FAIR      21  10  63 NW24G31   30.52R WCI   4
COTTONWOOD PAS FAIR      50  21  32 N3        30.47S
GUNNISON       FAIR      35  28  75 CALM      30.50F
KREMMLING      FOG       36  34  93 CALM      30.43F VSB 1/4
LEADVILLE      FAIR      40  24  53 NE6       30.47S
MONARCH PASS   FAIR      32  27  80 SW23      30.66S WCI  19
SALIDA         FAIR      46  33  59 NW8       30.47S
SUNLIGHT       FAIR      36  27  69 SW7       30.56F
WILKERSON PASS FAIR      37  10  32 N12G30    30.51S
$$

COZ069>075-231800-
...SAN LUIS VALLEY/SANGRE DE CRISTO MOUNTAINS...

CITY           SKY/WX    TMP DP  RH WIND       PRES   REMARKS
ALAMOSA        FAIR      46  31  55 CALM      30.42S
DEL NORTE      FAIR      45  27  50 CALM      30.43F
LA VETA PASS   FAIR      37  28  70 SW21        N/A
SAGUACHE       FAIR      43  30  61 CALM      30.43S
$$

COZ035-036-038>040-231800-
...NORTHERN COLORADO FRONT RANGE...

CITY           SKY/WX    TMP DP  RH WIND       PRES   REMARKS
DENVER INTL AP PTSUNNY   61  31  32 SW12      30.18F
DMNS CITY PARK   N/A     61  30  30 SE8       30.18F
AURORA         PTSUNNY   60  31  33 SW15      30.20F
FRONT RANGE AP PTSUNNY   64  32  29 SW9       30.20S
ERIE MUNI ARPT FAIR      67  27  22 S3        30.20F
BOULDER MUN AP FAIR      66  28  24 SW5       30.15F
CENTENNIAL     PTSUNNY   60  30  32 SW10      30.21F
BROOMFIELD     MOSUNNY   66  27  22 W15G24    30.19F
FORT COLLINS   FAIR      56  39  53 SE5       30.16F
LONGMONT       FAIR      60  38  44 CALM      30.16F
$$

COZ041-046-047-076>085-087-088-231800-
...PIKES PEAK/PALMER DIVIDE AND SOUTHERN FOOTHILLS...

CITY           SKY/WX    TMP DP  RH WIND       PRES   REMARKS
COLO. SPRINGS  PTSUNNY   60  32  34 CALM      30.26F
A. F. ACADEMY  FAIR      56  31  39 SE5       30.26F
SCHRIEVER AFB  FAIR      59  29  32 SW8       30.26F
CHEYENNE MTN   FAIR      56  31  38 CALM      30.23S
ELLICOTT         N/A    N/A N/A N/A SW7       30.24F
FALCON         FAIR      57  29  34 SW8       30.29F
FORT CARSON    FAIR      58  32  38 NE6       30.23F
LIMON          FAIR      62  36  37 S16       30.21F
MONUMENT HILL  FAIR      55  32  41 SW12G17   30.29S
CANON CITY     FAIR      61  32  33 W13G18    30.23F
WALSENBURG     FAIR      61  32  33 SW13      30.26F
TRINIDAD       FAIR      55  33  43 W12       30.27F
$$

COZ042>045-048>051-090-091-231800-
...NORTHEAST COLORADO...

CITY           SKY/WX    TMP DP  RH WIND       PRES   REMARKS
GREELEY ARPT   FAIR      50  37  61 VRB3      30.16F
AKRON          FAIR      58  34  40 W14       30.15F
BURLINGTON     FAIR      63  40  42 NW6       30.16F
WRAY           NOT AVBL
YUMA           FAIR      61  28  29 SW10      30.13F
STERLING       FAIR      48  37  66 S6        30.13F
HOLYOKE        FAIR      63  41  45 W13       30.11F
FORT MORGAN    FAIR      52  33  48 W6        30.16S
$$

COZ086-089-092>099-231800-
...SOUTHEAST COLORADO...

CITY           SKY/WX    TMP DP  RH WIND       PRES   REMARKS
PUEBLO         FAIR      53  35  50 W3        30.21F
LA JUNTA       FAIR      58  35  42 W9        30.21F
LAMAR          FAIR      60  34  37 W9        30.18F
SPRINGFIELD      N/A     66  36  32 W9        30.20F
$$




USA.gov is the U.S. government's official web portal to all federal, state and local government web resources and services.